Weather History for Cold Bay, AK

Change the Weather History Date:

Thursday, December 6, 2012

  Actual Average Record
Temperature  
Mean Temperature 18 °F 32 °F  
Max Temperature 20 °F 37 °F 53 °F (2013)
Min Temperature 15 °F 28 °F 8 °F (1999)
Degree Days  
Heating Degree Days 47 33  
Month to date heating degree days 248 195  
Since 1 July heating degree days 3537 3221  
Cooling Degree Days 0    
Month to date cooling degree days 0  
Year to date cooling degree days 0  
Moisture  
Dew Point 12 °F    
Average Humidity 0    
Maximum Humidity 0    
Minimum Humidity 0    
Precipitation  
Precipitation 0.02 in 0.16 in 1.38 in (1958)
Month to date precipitation 0.08 0.98  
Year to date precipitation 40.47 38.19  
Snow  
Snow 0.30 in 0.40 in 7.50 in (1960)
Month to date snowfall 0.9 2.4  
Since 1 July snowfall 9.9 15.0  
Snow Depth 3.00 in    
Sea Level Pressure  
Sea Level Pressure 29.95 in    
Wind  
Wind Speed 12 mph (North)    
Max Wind Speed 23 mph    
Max Gust Speed 26 mph    
Visibility 8 miles    
Events Snow    
T = Trace of Precipitation, MM = Missing Value Source: NWS Daily Summary

Daily Weather History Graph

Daily Weather History Graph

Search for Another Location

Airport:

Trip Planner

Search our weather history database for the weather conditions in past years. The results will help you decide how hot, cold, wet, or windy it might be!

Date:

Astronomy

Dec. 06, 2012 Rise Set
Actual Time 10:01 AM AKST 5:22 PM AKST
Civil Twilight 9:16 AM AKST 6:07 PM AKST
Nautical Twilight 8:29 AM AKST 6:54 PM AKST
Astronomical Twilight 7:45 AM AKST 7:39 PM AKST
Moon 1:22 AM AKST (12/6) 1:57 PM AKST (12/6)
Length of Visible Light 8h 50m
Length of Day
7h 20m
Waning Gibbous, 48% of the Moon is Illuminated
Dec 6
Waning Gibbous
Dec 12
New
Dec 19
First Quarter
Dec 28
Full
Jan 4
Last Quarter

Hourly Weather History & Observations

Time (AKST) Temp. Windchill Dew Point Humidity Pressure Visibility Wind Dir Wind Speed Gust Speed Precip Events Conditions
12:36 AM 15.8 °F 2.7 °F 10.4 °F 79% 29.90 in 2.5 mi NNW 11.5 mph - 0.01 in Snow Light Snow
12:44 AM 17.6 °F 3.7 °F 12.2 °F 79% 29.90 in 6.0 mi NW 13.8 mph - 0.01 in Snow Light Snow
12:53 AM 18.0 °F 3.1 °F 10.9 °F 74% 29.91 in 9.0 mi NW 16.1 mph - 0.01 in Snow Light Snow
1:03 AM 17.6 °F 4.3 °F 10.4 °F 73% 29.90 in 9.0 mi NNW 12.7 mph - 0.00 in Snow Light Snow
1:53 AM 18.0 °F 0.9 °F 10.0 °F 71% 29.92 in 8.0 mi NW 21.9 mph 26.5 mph 0.00 in Snow Light Snow
2:50 AM 17.6 °F 2.7 °F 12.2 °F 79% 29.93 in 3.0 mi North 16.1 mph - 0.00 in Snow Light Snow
3:44 AM 17.6 °F 2.7 °F 12.2 °F 79% 29.93 in 9.0 mi NNW 16.1 mph - 0.00 in Snow Light Snow
3:53 AM 18.0 °F 3.1 °F 12.0 °F 78% 29.94 in 9.0 mi NNW 16.1 mph - 0.00 in Snow Light Snow
4:53 AM 19.0 °F 5.6 °F 12.0 °F 74% 29.94 in 8.0 mi NNW 13.8 mph - 0.00 in Snow Light Snow
5:53 AM 19.0 °F 7.5 °F 12.9 °F 77% 29.94 in 7.0 mi NNW 10.4 mph - 0.00 in Snow Light Snow
6:03 AM 19.4 °F 7.9 °F 12.2 °F 74% 29.93 in 8.0 mi NNW 10.4 mph - 0.00 in Snow Light Snow
6:30 AM 19.4 °F 6.0 °F 14.0 °F 80% 29.93 in 2.5 mi NNW 13.8 mph - 0.00 in Snow Light Snow
6:38 AM 19.4 °F 6.0 °F 14.0 °F 80% 29.94 in 1.5 mi NNW 13.8 mph - 0.01 in Snow Light Snow
6:50 AM 19.4 °F 6.6 °F 15.8 °F 86% 29.93 in 1.5 mi NNW 12.7 mph - 0.01 in Snow Light Snow
6:53 AM 19.0 °F 6.1 °F 14.0 °F 81% 29.94 in 3.0 mi NNW 12.7 mph - 0.01 in Snow Light Snow
7:01 AM 19.4 °F 5.0 °F 14.0 °F 80% 29.93 in 9.0 mi NNW 16.1 mph - 0.00 in Snow Light Snow
7:08 AM 19.4 °F 5.0 °F 14.0 °F 80% 29.93 in 9.0 mi North 16.1 mph - 0.00 in Snow Light Snow
7:53 AM 19.0 °F 7.5 °F 12.9 °F 77% 29.94 in 9.0 mi NNW 10.4 mph - 0.00 in Snow Light Snow
8:53 AM 19.0 °F 6.1 °F 12.9 °F 77% 29.95 in 9.0 mi North 12.7 mph - 0.00 in Snow Light Snow
9:53 AM 19.0 °F 9.0 °F 12.9 °F 77% 29.96 in 9.0 mi North 8.1 mph - 0.00 in Snow Light Snow
10:16 AM 19.4 °F 10.4 °F 14.0 °F 80% 29.95 in 8.0 mi North 6.9 mph - 0.00 in Snow Light Snow
10:31 AM 19.4 °F 9.5 °F 14.0 °F 80% 29.95 in 6.0 mi North 8.1 mph - 0.00 in Snow Light Snow
10:53 AM 19.0 °F 8.2 °F 12.9 °F 77% 29.96 in 4.0 mi NNE 9.2 mph - 0.00 in Snow Light Snow
11:07 AM 19.4 °F 9.5 °F 12.2 °F 74% 29.96 in 4.0 mi North 8.1 mph - 0.00 in Snow Light Snow
11:53 AM 19.9 °F 10.1 °F 14.0 °F 78% 29.98 in 9.0 mi NNE 8.1 mph - 0.00 in   Overcast
12:28 PM 19.4 °F 7.9 °F 14.0 °F 80% 29.97 in 10.0 mi North 10.4 mph - N/A   Overcast
12:53 PM 19.0 °F 6.1 °F 12.9 °F 77% 29.98 in 9.0 mi North 12.7 mph - 0.00 in Snow Light Snow
1:19 PM 19.4 °F 8.6 °F 12.2 °F 74% 29.97 in 10.0 mi North 9.2 mph - 0.00 in   Overcast
1:53 PM 19.9 °F 9.3 °F 12.9 °F 74% 29.98 in 10.0 mi North 9.2 mph - 0.00 in   Overcast
2:36 PM 19.4 °F 5.5 °F 12.2 °F 74% 29.97 in 10.0 mi North 15.0 mph - N/A   Overcast
2:53 PM 19.0 °F 6.1 °F 12.0 °F 74% 29.98 in 10.0 mi North 12.7 mph - N/A   Overcast
3:13 PM 19.4 °F 8.6 °F 10.4 °F 68% 29.98 in 10.0 mi North 9.2 mph - N/A   Overcast
3:53 PM 19.0 °F 7.5 °F 10.9 °F 71% 29.98 in 10.0 mi North 10.4 mph - N/A   Overcast
4:53 PM 18.0 °F 7.7 °F 12.0 °F 78% 29.98 in 7.0 mi North 8.1 mph - 0.00 in Snow Light Snow
5:53 PM 17.1 °F 10.0 °F 10.9 °F 77% 29.98 in 10.0 mi NNE 4.6 mph - 0.00 in   Overcast
6:53 PM 18.0 °F 11.1 °F 10.9 °F 74% 29.97 in 10.0 mi North 4.6 mph - N/A   Overcast
7:53 PM 18.0 °F 4.2 °F 12.0 °F 78% 29.96 in 9.0 mi NNE 13.8 mph - 0.00 in Snow Light Snow
8:53 PM 18.0 °F 5.4 °F 10.9 °F 74% 29.97 in 9.0 mi NNE 11.5 mph - 0.00 in Snow Light Snow
9:53 PM 17.1 °F 4.3 °F 10.9 °F 77% 29.96 in 10.0 mi NNE 11.5 mph - 0.00 in   Overcast
10:53 PM 16.0 °F 3.6 °F 9.0 °F 74% 29.96 in 10.0 mi NNE 10.4 mph - N/A   Overcast
11:53 PM 15.1 °F 2.5 °F 8.1 °F 74% 29.95 in 10.0 mi North 10.4 mph - N/A   Overcast